Location: Mannheim
(49.4880°N, 8.4650°E)
Time: 13:07:04
(UTC+02:00)

Envisat - Visible Passes

Search period start: 20 September 2024 00:00
Search period end: 30 September 2024 00:00
Orbit: 762 x 764 km, 98.3° (Epoch: 19 September)

Date Brightness Start Highest point End Pass type
(mag) Time Alt. Az. Time Alt. Az. Time Alt. Az.
20 Sep 5.7 03:02:52 10° ENE 03:04:10 11° E 03:05:29 10° E visible
20 Sep 3.1 04:38:56 10° NNE 04:44:03 74° ESE 04:45:57 39° S visible
20 Sep 4.4 06:18:54 10° NNW 06:22:28 20° WNW 06:26:01 10° WSW visible
21 Sep 4.3 04:01:44 10° NNE 04:06:25 36° E 04:07:57 29° SE visible
21 Sep 3.7 05:40:46 10° N 05:45:22 36° WNW 05:48:05 21° WSW visible
22 Sep 5.2 03:25:10 10° NE 03:28:35 18° E 03:29:56 16° ESE visible
22 Sep 2.9 05:03:01 10° N 05:08:05 71° WNW 05:10:05 37° SW visible
23 Sep 3.4 04:25:35 10° NNE 04:30:37 57° E 04:32:04 41° SSE visible
23 Sep 4.2 06:05:12 10° N 06:09:13 24° WNW 06:12:13 14° WSW visible
24 Sep 4.6 03:48:33 10° NE 03:52:55 28° E 03:54:03 26° ESE visible
24 Sep 3.3 05:27:13 10° N 05:32:03 45° WNW 05:34:11 29° WSW visible
25 Sep 5.5 03:12:25 10° NE 03:15:00 14° E 03:16:02 13° E visible
25 Sep 2.9 04:49:35 10° NNE 04:54:42 90° SSW 04:56:11 48° SSW visible
25 Sep 4.6 06:29:53 10° NNW 06:32:58 16° NW 06:36:03 10° W visible
26 Sep 3.9 04:12:16 10° NNE 04:17:08 44° E 04:18:10 39° SE visible
26 Sep 3.9 05:51:33 10° N 05:55:56 30° WNW 05:58:18 20° WSW visible
27 Sep 4.9 03:35:26 10° NE 03:39:22 22° E 03:40:08 21° ESE visible
27 Sep 3.0 05:13:42 10° N 05:18:42 58° WNW 05:20:17 40° SW visible
28 Sep 5.7 03:00:32 10° ENE 03:01:22 10° E 03:02:07 10° E visible
28 Sep 3.1 04:36:11 10° NNE 04:41:16 71° ESE 04:42:16 55° SSE visible
28 Sep 4.4 06:16:04 10° NNW 06:19:43 20° WNW 06:22:24 14° W visible
29 Sep 4.3 03:59:00 10° NNE 04:03:38 34° E 04:04:14 33° ESE visible
29 Sep 3.6 05:37:57 10° N 05:42:36 37° WNW 05:44:23 28° WSW visible
